Location: Great Malvern
(52.1167°N, 2.3167°W)
Time: 19:15:50
(UTC+00:00)

Cosmos 1892 Rocket - Pass Details

Date: 18 September 2020
Orbit: 606 x 633 km, 82.5° (Epoch: 22 October)

Event Time Altitude Azimuth Distance (km) Brightness Sun altitude
Rises 20:13:34 0° 355° (N) 2,881 7.5 -18.1°
Reaches altitude 10° 20:15:58 10° 4° (N) 1,970 6.4 -18.4°
Maximum altitude 20:19:57 35° 71° (ENE) 998 4.3 -19.0°
Enters shadow 20:20:07 34° 76° (ENE) 1,000 4.2 -19.0°
